Location: Newark
(60.0000°N, 100.0000°E)
Time: 03:36:57
(UTC+00:00)

N. Korean satellite - Pass Details

Date: 22 November 2019
Orbit: 455 x 506 km, 97.2° (Epoch: 10 December)

Event Time Altitude Azimuth Distance (km) Brightness Sun altitude
Rises 23:37:52 0° 15° (NNE) 2,623 10.3 -13.6°
Reaches altitude 10° 23:39:58 10° 16° (NNE) 1,730 9.3 -13.3°
Maximum altitude 23:43:43 89° 115° (ESE) 510 6.6 -12.9°
Drops below altitude 10° 23:47:23 10° 197° (SSW) 1,697 9.3 -12.5°
Sets 23:49:26 0° 197° (SSW) 2,567 10.3 -12.2°
